Las Vegas, NM

10:46 PM MST on December 17, 2017 (GMT -0700)
Las Vegas Municipal

Weather History for KLVS - January, 2014

Change the Weather History Date:

Monday, January 13, 2014

  Actual Average Record
Temperature  
Mean Temperature 34 °F -  
Max Temperature 48 °F 46 °F 67 °F (1983)
Min Temperature 19 °F 18 °F -23 °F (1963)
Degree Days  
Heating Degree Days 32    
Moisture  
Dew Point 3 °F    
Average Humidity 31    
Maximum Humidity 47    
Minimum Humidity 16    
Precipitation  
Precipitation 0.00 in - - ()
Sea Level Pressure  
Sea Level Pressure 30.05 in    
Wind  
Wind Speed 8 mph (NNE)    
Max Wind Speed 14 mph    
Max Gust Speed 20 mph    
Visibility 10 miles    
Events      
Averages and records for this station are not official NWS values.
T = Trace of Precipitation, MM = Missing Value Source: NWS Daily Summary

Daily Weather History Graph

Daily Weather History Graph

Search for Another Location

Airport or City:

Trip Planner

Search our weather history database for the weather conditions in past years. The results will help you decide how hot, cold, wet, or windy it might be!

Date:

Astronomy

Jan. 13, 2014 Rise Set
Actual Time 7:10 AM MST 5:08 PM MST
Civil Twilight 6:42 AM MST 5:36 PM MST
Nautical Twilight 6:10 AM MST 6:08 PM MST
Astronomical Twilight 5:40 AM MST 6:38 PM MST
Moon 3:25 PM MST (1/13) 5:01 AM MST (1/13)
Length of Visible Light 10h 54m
Length of Day
9h 58m
Waxing Gibbous, 95% of the Moon is Illuminated
Jan 13
Waxing Gibbous
Jan 15
Full
Jan 23
Last Quarter
Jan 30
New
Feb 6
First Quarter

Hourly Weather History & Observations

Time (MST) Temp. Windchill Dew Point Humidity Pressure Visibility Wind Dir Wind Speed Gust Speed Precip Events Conditions
12:53 AM 21.9 °F 13.4 °F 3.0 °F 44% 29.97 in 10.0 mi NNE 6.9 mph - N/A   Clear
1:53 AM 19.0 °F 8.2 °F 1.9 °F 47% 30.00 in 10.0 mi ENE 9.2 mph - N/A   Clear
2:53 AM 21.0 °F 12.4 °F 1.9 °F 44% 30.02 in 10.0 mi ENE 6.9 mph - N/A   Clear
3:53 AM 19.0 °F 8.2 °F 1.9 °F 47% 30.03 in 10.0 mi East 9.2 mph - N/A   Clear
4:53 AM 23.0 °F 18.4 °F -0.9 °F 35% 30.06 in 10.0 mi Variable 3.5 mph - N/A   Clear
5:53 AM 26.1 °F 15.0 °F -2.0 °F 30% 30.07 in 10.0 mi North 12.7 mph - N/A   Clear
6:53 AM 27.0 °F 21.6 °F -0.9 °F 30% 30.09 in 10.0 mi NNE 4.6 mph - N/A   Clear
7:53 AM 25.0 °F 20.7 °F -0.9 °F 33% 30.10 in 10.0 mi ENE 3.5 mph - N/A   Clear
8:53 AM 30.9 °F 22.8 °F -0.0 °F 27% 30.10 in 10.0 mi East 9.2 mph - N/A   Clear
9:53 AM 36.0 °F - 3.9 °F 26% 30.11 in 10.0 mi North - - N/A   Clear
10:53 AM 41.0 °F 37.1 °F 1.9 °F 20% 30.07 in 10.0 mi Variable 5.8 mph - N/A   Clear
11:53 AM 45.0 °F 40.1 °F 3.0 °F 18% 30.02 in 10.0 mi NNW 9.2 mph - N/A   Clear
12:53 PM 48.0 °F - 3.9 °F 16% 29.99 in 10.0 mi North 12.7 mph 19.6 mph N/A   Clear
1:53 PM 46.9 °F - 3.0 °F 16% 30.00 in 10.0 mi SE 8.1 mph 17.3 mph N/A   Clear
2:53 PM 46.9 °F - 3.0 °F 16% 30.00 in 10.0 mi South 13.8 mph - N/A   Clear
3:53 PM 46.0 °F 40.2 °F 3.9 °F 18% 30.01 in 10.0 mi South 12.7 mph - N/A   Clear
4:53 PM 43.0 °F 39.5 °F 3.9 °F 20% 30.03 in 10.0 mi SW 5.8 mph - N/A   Clear
5:53 PM 34.0 °F 29.8 °F 1.9 °F 26% 30.06 in 10.0 mi NE 4.6 mph - N/A   Clear
6:53 PM 33.1 °F - 3.0 °F 28% 30.09 in 10.0 mi Calm Calm - N/A   Clear
7:53 PM 30.0 °F 21.7 °F 5.0 °F 35% 30.12 in 10.0 mi NNW 9.2 mph - N/A   Clear
8:53 PM 30.0 °F 21.1 °F 7.0 °F 38% 30.09 in 10.0 mi WNW 10.4 mph - N/A   Clear
9:53 PM 26.1 °F 19.4 °F 6.1 °F 43% 30.11 in 10.0 mi West 5.8 mph - N/A   Clear
10:53 PM 30.0 °F 23.2 °F 9.0 °F 41% 30.05 in 10.0 mi WNW 6.9 mph - N/A   Clear
11:53 PM 28.0 °F 21.7 °F 8.1 °F 43% 30.02 in 10.0 mi West 5.8 mph - N/A   Clear